Location: Moscow
(38.3171°N, 79.0889°W)
Time: 02:07:01
(UTC+00:00)

Cosmos 1844 Rocket - Pass Details

Date: 07 November 2025
Orbit: 823 x 844 km, 71.0° (Epoch: 08 December)

Event Time Altitude Azimuth Distance (km) Brightness Sun altitude
Rises 22:39:15 0° 210° (SSW) 3,342 6.6 -6.2°
Reaches altitude 10° 22:41:41 10° 214° (SW) 2,413 5.9 -6.7°
Maximum altitude 22:47:09 62° 295° (WNW) 925 3.2 -7.7°
Drops below altitude 10° 22:52:40 10° 16° (NNE) 2,432 4.8 -8.8°
Sets 22:55:09 0° 20° (NNE) 3,371 5.5 -9.2°
